When you browse on this site, cookies collect data to enhance your experience and personalize the content and advertising you see.
Visit our Privacy Policy to learn more. By continuing to use the site, you agree to this use of cookies and data.
  • în România
  • Lista ţărilor
  • Pe 7 zile
  • Temperatura apei
  • Hartă satelitară
  • Meteo pe hartă
  • Widget-uri
  • user-avatar
    Intrare

    Meteo pe oră la Kuchary

    Astăzi, 26 Iunie, Miercuri

    Timp Temperatura Precipitaţii Vânt Presiune Umiditate
    00:00 +22°C° 0 mm 1 m/s 748 mmHg 94%
    01:00 +22°C° 0 mm 1 m/s 749 mmHg 94%
    02:00 +22°C° 0 mm 1 m/s 748 mmHg 94%
    03:00 +22°C° 0 mm 1 m/s 748 mmHg 93%
    04:00 +21°C° 0 mm 1 m/s 748 mmHg 93%
    05:00 +23°C° 0 mm 1 m/s 748 mmHg 88%
    06:00 +25°C° 0 mm 1 m/s 748 mmHg 83%
    07:00 +26°C° 0 mm 1 m/s 748 mmHg 78%
    08:00 +28°C° 0 mm 1 m/s 748 mmHg 73%
    09:00 +29°C° 0 mm 1 m/s 748 mmHg 68%
    10:00 +31°C° 0 mm 1 m/s 748 mmHg 63%
    11:00 +32°C° 0 mm 1 m/s 747 mmHg 58%
    12:00 +34°C° 0 mm 2 m/s 747 mmHg 53%
    13:00 +34°C° 0 mm 2 m/s 747 mmHg 48%
    14:00 +35°C° 0 mm 2 m/s 746 mmHg 49%
    15:00 +35°C° 0 mm 2 m/s 746 mmHg 50%
    16:00 +35°C° 0 mm 3 m/s 745 mmHg 51%
    17:00 +33°C° 0 mm 3 m/s 745 mmHg 57%
    18:00 +30°C° 0 mm 3 m/s 745 mmHg 63%
    19:00 +28°C° 0 mm 3 m/s 744 mmHg 70%
    20:00 +27°C° 0 mm 3 m/s 744 mmHg 72%
    21:00 +26°C° 0 mm 4 m/s 744 mmHg 74%
    22:00 +26°C° 0 mm 4 m/s 744 mmHg 76%
    23:00 +25°C° 0 mm 4 m/s 744 mmHg 76%

    Mâine, 27 Iunie, Joi

    Timp Temperatura Precipitaţii Vânt Presiune Umiditate
    00:00 +25°C° 0 mm 4 m/s 743 mmHg 76%
    01:00 +25°C° 0 mm 5 m/s 743 mmHg 76%
    02:00 +25°C° 0.4 mm 5 m/s 743 mmHg 80%
    03:00 +23°C° 0.4 mm 5 m/s 743 mmHg 84%
    04:00 +23°C° 0.4 mm 5 m/s 742 mmHg 88%
    05:00 +23°C° 0.5 mm 5 m/s 742 mmHg 89%
    06:00 +23°C° 0.5 mm 5 m/s 742 mmHg 89%
    07:00 +23°C° 0.5 mm 5 m/s 743 mmHg 89%
    08:00 +23°C° 0.1 mm 6 m/s 743 mmHg 81%
    09:00 +23°C° 0.1 mm 7 m/s 743 mmHg 74%
    10:00 +24°C° 0.1 mm 8 m/s 743 mmHg 66%
    11:00 +24°C° 0 mm 8 m/s 743 mmHg 60%
    12:00 +24°C° 0 mm 8 m/s 742 mmHg 54%
    13:00 +26°C° 0 mm 8 m/s 742 mmHg 48%
    14:00 +24°C° 0 mm 7 m/s 742 mmHg 49%
    15:00 +24°C° 0 mm 7 m/s 742 mmHg 50%
    16:00 +23°C° 0 mm 7 m/s 742 mmHg 51%
    17:00 +22°C° 0 mm 6 m/s 742 mmHg 57%
    18:00 +20°C° 0 mm 5 m/s 742 mmHg 63%
    19:00 +19°C° 0 mm 4 m/s 742 mmHg 69%
    20:00 +18°C° 0 mm 4 m/s 742 mmHg 72%
    21:00 +17°C° 0 mm 4 m/s 742 mmHg 75%
    22:00 +16°C° 0 mm 3 m/s 743 mmHg 78%
    23:00 +16°C° 0 mm 3 m/s 743 mmHg 83%

    Poimâine, 28 Iunie, Vineri

    Timp Temperatura Precipitaţii Vânt Presiune Umiditate
    00:00 +14°C° 0 mm 3 m/s 743 mmHg 88%
    01:00 +14°C° 0 mm 3 m/s 743 mmHg 93%
    02:00 +14°C° 0 mm 3 m/s 743 mmHg 92%
    03:00 +14°C° 0 mm 3 m/s 743 mmHg 92%
    04:00 +13°C° 0 mm 3 m/s 743 mmHg 92%
    05:00 +14°C° 0 mm 3 m/s 743 mmHg 84%
    06:00 +16°C° 0 mm 3 m/s 744 mmHg 76%
    07:00 +17°C° 0 mm 3 m/s 744 mmHg 68%
    08:00 +18°C° 0 mm 3 m/s 744 mmHg 62%
    09:00 +19°C° 0 mm 4 m/s 744 mmHg 57%
    10:00 +20°C° 0 mm 4 m/s 744 mmHg 51%
    11:00 +20°C° 0 mm 4 m/s 744 mmHg 51%
    12:00 +21°C° 0 mm 4 m/s 744 mmHg 51%
    13:00 +21°C° 0 mm 5 m/s 744 mmHg 51%
    14:00 +21°C° 0 mm 4 m/s 743 mmHg 53%
    15:00 +21°C° 0 mm 4 m/s 743 mmHg 55%
    16:00 +22°C° 0 mm 3 m/s 743 mmHg 57%
    17:00 +21°C° 0.1 mm 3 m/s 743 mmHg 64%
    18:00 +20°C° 0.1 mm 3 m/s 743 mmHg 71%
    19:00 +18°C° 0.1 mm 3 m/s 743 mmHg 78%
    20:00 +17°C° 0 mm 2 m/s 744 mmHg 78%
    21:00 +15°C° 0 mm 2 m/s 744 mmHg 78%
    22:00 +14°C° 0 mm 2 m/s 744 mmHg 78%
    23:00 +13°C° 0 mm 2 m/s 744 mmHg 79%

    29 Iunie, Sâmbătă

    Timp Temperatura Precipitaţii Vânt Presiune Umiditate
    00:00 +12°C° 0 mm 3 m/s 745 mmHg 81%
    01:00 +11°C° 0 mm 3 m/s 745 mmHg 83%
    02:00 +10°C° 0 mm 3 m/s 745 mmHg 84%
    03:00 +9°C° 0 mm 2 m/s 745 mmHg 85%
    04:00 +9°C° 0 mm 2 m/s 745 mmHg 86%
    05:00 +10°C° 0 mm 3 m/s 745 mmHg 80%
    06:00 +12°C° 0 mm 3 m/s 745 mmHg 74%
    07:00 +14°C° 0 mm 3 m/s 745 mmHg 68%
    08:00 +17°C° 0 mm 3 m/s 746 mmHg 62%
    09:00 +18°C° 0 mm 4 m/s 746 mmHg 56%
    10:00 +20°C° 0 mm 4 m/s 746 mmHg 50%
    11:00 +21°C° 0 mm 4 m/s 746 mmHg 49%
    12:00 +22°C° 0 mm 4 m/s 745 mmHg 49%
    13:00 +22°C° 0 mm 4 m/s 745 mmHg 49%
    14:00 +22°C° 0 mm 4 m/s 745 mmHg 51%
    15:00 +22°C° 0 mm 3 m/s 745 mmHg 54%
    16:00 +22°C° 0 mm 3 m/s 745 mmHg 56%
    17:00 +21°C° 0 mm 2 m/s 744 mmHg 61%
    18:00 +21°C° 0 mm 2 m/s 744 mmHg 66%
    19:00 +21°C° 0 mm 1 m/s 744 mmHg 72%
    20:00 +19°C° 0 mm 1 m/s 745 mmHg 74%
    21:00 +18°C° 0 mm 1 m/s 745 mmHg 76%
    22:00 +16°C° 0 mm 1 m/s 745 mmHg 78%
    23:00 +16°C° 0 mm 1 m/s 745 mmHg 78%

    30 Iunie, Duminică

    Timp Temperatura Precipitaţii Vânt Presiune Umiditate
    00:00 +15°C° 0 mm 1 m/s 745 mmHg 78%
    01:00 +15°C° 0 mm 2 m/s 745 mmHg 78%
    02:00 +15°C° 0 mm 2 m/s 745 mmHg 78%
    03:00 +14°C° 0 mm 2 m/s 744 mmHg 78%
    04:00 +14°C° 0 mm 2 m/s 744 mmHg 79%
    05:00 +16°C° 0 mm 2 m/s 745 mmHg 74%
    06:00 +18°C° 0 mm 2 m/s 745 mmHg 69%
    07:00 +20°C° 0 mm 2 m/s 745 mmHg 64%
    08:00 +23°C° 0 mm 2 m/s 745 mmHg 59%
    09:00 +24°C° 0 mm 2 m/s 745 mmHg 53%
    10:00 +26°C° 0 mm 2 m/s 745 mmHg 48%
    11:00 +27°C° 0 mm 2 m/s 744 mmHg 46%
    12:00 +28°C° 0 mm 2 m/s 744 mmHg 45%
    13:00 +29°C° 0 mm 2 m/s 744 mmHg 43%
    14:00 +29°C° 0 mm 2 m/s 743 mmHg 44%
    15:00 +29°C° 0 mm 2 m/s 743 mmHg 45%
    16:00 +29°C° 0 mm 1 m/s 743 mmHg 46%
    17:00 +28°C° 0 mm 1 m/s 743 mmHg 53%
    18:00 +26°C° 0 mm 1 m/s 742 mmHg 59%
    19:00 +25°C° 0 mm 1 m/s 742 mmHg 66%
    20:00 +24°C° 0 mm 2 m/s 742 mmHg 69%
    21:00 +21°C° 0 mm 2 m/s 742 mmHg 72%
    22:00 +20°C° 0 mm 2 m/s 742 mmHg 75%
    23:00 +19°C° 0 mm 2 m/s 742 mmHg 78%

    1 Iulie, Luni

    Timp Temperatura Precipitaţii Vânt Presiune Umiditate
    00:00 +18°C° 0 mm 2 m/s 742 mmHg 81%
    01:00 +18°C° 0 mm 3 m/s 742 mmHg 84%
    02:00 +17°C° 0 mm 3 m/s 742 mmHg 84%
    03:00 +17°C° 0 mm 2 m/s 742 mmHg 84%
    04:00 +16°C° 0 mm 2 m/s 741 mmHg 84%
    05:00 +18°C° 0 mm 2 m/s 741 mmHg 78%
    06:00 +20°C° 0 mm 3 m/s 741 mmHg 72%
    07:00 +22°C° 0 mm 3 m/s 741 mmHg 67%
    08:00 +25°C° 0 mm 3 m/s 741 mmHg 63%
    09:00 +27°C° 0 mm 3 m/s 741 mmHg 59%
    10:00 +28°C° 0 mm 3 m/s 741 mmHg 55%
    11:00 +29°C° 0 mm 3 m/s 741 mmHg 55%
    12:00 +30°C° 0 mm 3 m/s 741 mmHg 55%
    13:00 +32°C° 0 mm 4 m/s 740 mmHg 55%
    14:00 +32°C° 0 mm 4 m/s 740 mmHg 54%
    15:00 +32°C° 0 mm 4 m/s 740 mmHg 54%
    16:00 +32°C° 0 mm 4 m/s 739 mmHg 54%
    17:00 +30°C° 0.3 mm 4 m/s 739 mmHg 60%
    18:00 +28°C° 0.3 mm 5 m/s 739 mmHg 66%
    19:00 +26°C° 0.3 mm 5 m/s 739 mmHg 72%
    20:00 +25°C° 0.1 mm 4 m/s 739 mmHg 76%
    21:00 +24°C° 0.1 mm 3 m/s 739 mmHg 80%
    22:00 +21°C° 0.1 mm 3 m/s 739 mmHg 84%
    23:00 +21°C° 3.1 mm 3 m/s 739 mmHg 88%
    Arată mai mult